Location: Oshawa
(43.9000°N, 78.8670°W)
Time: 17:52:19
(UTC-05:00)

Daily predictions for brighter satellites

Satellite Brightness Start Highest point End
(mag) Time Altitude Azimuth Time Altitude Azimuth Time Altitude Azimuth
METEOR-M 4.4 18:12:03 10° S 18:17:24 77° WSW 18:22:47 10° NNW
Cosmos 44 Rocket 4.2 18:18:46 10° NNW 18:23:13 31° NE 18:27:44 10° ESE
COSMO-SKYMED 1 2.5 18:20:16 10° NNE 18:24:38 77° ESE 18:28:58 10° S
Ariane Rocket 4.3 18:20:15 10° S 18:25:09 47° W 18:30:05 10° NNW
MTI 3.9 18:22:07 10° NNE 18:25:14 49° E 18:28:20 10° S
Tiangong 2 1.6 18:22:36 10° W 18:25:43 55° SSW 18:28:50 10° ESE
Cosmos 1980 3.8 18:22:09 10° NNW 18:27:53 88° ENE 18:33:35 10° SSE
Cosmos 2285 Rocket 4.0 18:22:07 10° SSW 18:28:26 79° ESE 18:34:50 10° NNE
USA 267 4.2 18:24:58 10° ENE 18:30:37 32° NNE 18:36:15 10° NW
EO 1 Del DPAF 3.6 18:27:39 10° NNE 18:31:18 41° E 18:34:55 10° S
CENTAUR R/B 3.3 18:26:23 10° SSE 18:31:22 28° ESE 18:36:54 10° NE
FREGAT/IRIS 3.7 18:30:11 10° SE 18:32:36 23° ENE 18:35:03 10° NNE
Cosmos 2056 Rocket 3.8 18:29:34 10° NNW 18:34:59 77° WSW 18:40:24 10° SSE
SPOT 3 Rocket 3.5 18:35:17 10° SSE 18:40:28 76° ENE 18:45:42 10° N
Cosmos 1452 Rocket 3.7 18:36:08 10° N 18:41:16 50° ENE 18:46:21 10° SE
FengYun 1-2 T 4.3 18:38:36 10° SSE 18:43:57 55° ENE 18:49:18 10° N
Landsat 4 3.6 18:41:14 10° NNE 18:45:00 78° ESE 18:48:45 10° S
Cosmos 1674 Rocket 3.5 18:46:02 10° N 18:50:23 66° E 18:54:41 10° SSE
ALOS 3.3 18:48:13 10° S 18:52:45 51° W 18:57:19 10° NNW
Iridium 4 Rocket 3.6 18:50:00 10° N 18:54:44 41° E 18:59:02 10° SSE
Cosmos 158 Rocket 4.1 18:52:09 10° S 18:56:47 44° ESE 19:01:25 10° NNE
Lacrosse 5 3.1 18:52:46 10° WNW 18:57:32 42° SW 19:02:16 10° SSE
Cosmos 2219 Rocket 4.3 18:53:15 10° NW 18:58:06 30° WSW 19:02:55 10° SSW
ATLAS 3B R/B 3.7 18:52:02 10° WSW 18:58:56 47° NW 19:05:35 10° NNE
Cosmos 1908 Rocket 3.9 18:54:44 10° SSE 18:58:58 44° E 19:03:13 10° NNE
Cosmos 44 3.4 18:54:01 10° NNW 18:59:01 69° NE 19:04:14 10° SE
Cosmos 405 2.9 18:56:06 10° S 18:59:35 86° W 19:03:07 10° N
NOSS 3-2 (A) 3.9 18:54:11 10° SW 19:00:06 64° NW 19:06:44 10° NNE
CZ-4C R/B 4.1 18:55:38 10° NNW 19:00:47 22° NNE 19:04:38 15° ENE
Cosmos 1420 Rocket 4.0 18:57:41 10° NNW 19:02:56 63° ENE 19:08:11 10° SSE
SJ-6B 3.0 19:01:41 10° SE 19:05:16 43° ENE 19:08:56 10° N
BREEZE-M R/B 3.1 19:04:01 10° WNW 19:06:19 70° NNE 19:09:43 19° ESE
Cosmos 1733 Rocket 3.5 19:02:19 10° SSW 19:06:35 64° W 19:10:54 10° N
Okean 3 3.3 19:02:29 10° N 19:06:41 80° E 19:10:51 10° S
Cosmos 921 Rocket 3.6 19:03:08 10° N 19:07:21 37° ENE 19:10:05 19° ESE
SL-8 R/B 3.8 19:03:11 10° SW 19:07:51 57° SSE 19:10:35 24° ENE
Cosmos 2237 Rocket 3.4 19:07:06 10° NW 19:12:25 44° WSW 19:17:43 10° S
Cosmos 2227 Rocket 2.7 19:07:13 10° SW 19:12:48 61° WNW 19:18:25 10° NNE
SL-16 R/B 2.1 19:10:04 10° NNW 19:15:46 82° ENE 19:21:26 10° SSE
Meteor 1-14 Rocket 4.2 19:11:13 10° S 19:17:00 85° E 19:22:56 10° NNE
Okean 1 3.4 19:13:35 10° N 19:17:31 51° E 19:21:22 10° SSE
Resurs 01 Rocket 2.3 19:19:14 30° E 19:19:51 31° ENE 19:23:45 10° N
Cosmos 1513 Rocket 4.4 19:14:27 10° N 19:20:52 76° E 19:27:07 10° SSE
H-2A R/B 3.8 19:18:08 10° S 19:21:56 49° W 19:25:44 10° NNW
Cosmos 1975 Rocket 3.3 19:20:20 10° N 19:24:36 45° ENE 19:26:50 25° SE
Cosmos 2297 Rocket 2.9 19:21:25 10° SW 19:26:57 55° WNW 19:32:32 10° NNE
Meteor 1-20 Rocket 4.2 19:24:20 10° S 19:30:02 90° WSW 19:35:53 10° N
Thor Agena Rocket 3.4 19:26:36 10° NNE 19:31:42 64° ESE 19:36:42 10° S
Cosmos 468 4.4 19:27:45 10° SSW 19:33:01 87° ESE 19:38:18 10° NNE
Cosmos 1603 4.1 19:28:38 10° NNW 19:33:59 41° ENE 19:35:21 35° E
USA 186 3.5 19:38:13 23° N 19:38:13 23° N 19:39:43 10° N
CZ-2D R/B 3.2 19:33:03 10° SSE 19:36:57 89° ENE 19:40:52 10° NNW
Envisat 2.9 19:31:56 10° SSE 19:36:59 75° ENE 19:42:05 10° N
Tsikada Rocket 4.0 19:31:48 10° S 19:38:03 59° E 19:44:21 10° NNE
ARGOS Delta rocket 3.7 19:33:41 10° NNE 19:38:37 69° E 19:43:14 10° S
USA 215 3.2 19:34:23 21° NE 19:39:03 76° SE 19:45:35 10° SW
Meteor 1-18 Rocket 4.5 19:34:06 10° NNW 19:39:41 70° W 19:45:11 10° S
SeaSat 1 2.4 19:35:40 15° SSE 19:39:48 86° WSW 19:44:47 10° NNW
USA 32 3.9 19:35:17 10° S 19:40:31 88° E 19:45:47 10° N
ERS-2 3.8 19:38:37 10° SSW 19:42:01 36° W 19:45:28 10° NNW
Cosmos 1269 Rocket 3.9 19:38:15 10° S 19:43:27 63° ESE 19:48:02 14° NNE
Cosmos 1633 3.9 19:43:27 10° SSW 19:46:48 39° WNW 19:50:11 10° N
CZ-3B R/B 4.4 19:36:25 10° SSW 19:49:24 51° SE 19:50:15 46° ESE
Cosmos 1110 Rocket 4.2 19:44:50 10° N 19:49:58 48° ENE 19:50:10 48° ENE
Sich 1 Rocket 4.0 19:48:45 10° SSW 19:53:13 64° W 19:57:40 10° N
CZ-3C R/B 4.4 19:50:05 10° SSE 19:52:24 13° SSE 19:52:24 13° SSE
Cosmos 1782 Rocket 3.6 19:52:03 10° SSW 19:56:30 78° W 20:00:57 10° N
Meteor 1-19 Rocket 4.0 19:51:10 10° N 19:56:43 78° E 19:59:39 29° SSE
Meteor 1-11 Rocket 4.5 19:54:11 10° S 20:01:38 35° NE 20:05:05 10° NNE
H-2A R/B 4.2 20:02:38 13° NNE 20:02:38 13° NNE 20:03:28 10° NNE
Tiangong 2 3.6 19:59:52 10° WSW 20:01:40 17° SW 20:01:40 17° SW
Cosmos 1437 Rocket 3.2 19:59:20 10° SSW 20:03:21 65° WNW 20:07:26 10° N
Meteor 2-4 Rocket 3.7 19:58:22 10° N 20:04:11 64° ENE 20:04:43 61° ESE
Cosmos 44 Rocket 4.4 20:00:07 10° NW 20:04:54 44° WSW 20:07:57 21° S
Cosmos 1939 Rocket 3.6 20:07:20 46° N 20:07:20 46° N 20:10:17 10° NNW
USA 267 3.3 20:11:39 54° E 20:12:56 65° NNE 20:19:24 10° NW
Cosmos 2227 4.0 20:07:27 10° SSW 20:13:10 75° ESE 20:13:30 73° ENE
ATLAS CENTAUR R/B 3.7 20:16:52 10° NNW 20:17:56 16° N 20:17:56 16° N
CENTAUR R/B 3.0 20:15:27 10° SW 20:21:29 59° NW 20:26:24 20° NNE
Cosmos 1331 Rocket 4.2 20:18:39 10° NNW 20:23:12 65° N 20:23:12 65° N
Spot 2 Rocket 3.6 20:27:13 72° W 20:27:13 72° W 20:32:12 10° NNW
Geosat 4.2 20:28:15 63° NNW 20:28:43 67° WNW 20:33:41 10° SW
Cosmos 1943 3.9 20:37:14 10° NNW 20:41:13 47° NNW 20:41:13 47° NNW
Cosmos 1634 Rocket 4.0 20:37:28 10° N 20:43:37 76° W 20:43:37 76° W
CZ-4C R/B 3.0 20:43:39 10° NNW 20:49:51 60° NNE 20:49:51 60° NNE
Resurs 01 Rocket 3.6 20:56:48 26° W 20:56:48 26° W 21:00:03 10° NW
USA 215 4.1 21:21:44 43° NNW 21:21:47 43° NNW 21:27:53 10° W
